Regional Weather Roundup
Issued by NWS Cleveland, OH

Home | Current Version | Previous Version | Graphics & Text | Print | Product List | Glossary On
Versions: 1 2 3 4 5 6 7 8 9 10 11 12 13 14 15 16 17 18 19 20 21 22 23 24 25 26 27 28 29 30 31 32 33 34 35 36 37 38 39 40 41 42 43 44 45 46 47 48 49 50
000
ASUS41 KCLE 230402
RWRCLE
OHIO REGIONAL WEATHER ROUNDUP
NATIONAL WEATHER SERVICE CLEVELAND, OH
1200 AM EDT SAT MAY 23 2015

NOTE: "FAIR" INDICATES FEW OR NO CLOUDS BELOW 12,000 FEET WITH NO
SIGNIFICANT WEATHER AND/OR OBSTRUCTIONS TO VISIBILITY.

OHZ001>008-015>018-024>027-034-035-043-044-230500-
   NORTHWEST OHIO

CITY           SKY/WX    TMP DP  RH WIND       PRES   REMARKS
DEFIANCE       MOCLDY    55  37  50 NW3       30.31R
FINDLAY        MOCLDY    54  35  48 CALM      30.29R
TOLEDO EXPRESS PTCLDY    49  40  71 CALM      30.30R
TOLEDO EXEC    PTCLDY    52  37  56 CALM      30.30S
LIMA           PTCLDY    53  37  54 E6        30.30R
$$

OHZ009>014-019>023-028>033-038-089-230500-
   NORTHEAST OHIO

CITY           SKY/WX    TMP DP  RH WIND       PRES   REMARKS
CLE-HOPKINS    PTCLDY    49  30  48 E6        30.34R
CLE-LAKEFRONT  PTCLDY    51  28  41 SE9       30.32R
CUY CO. ARPT   NOT AVBL
LORAIN-ELYRIA  CLEAR     46  35  65 E6        30.31S
ASHTABULA      PTCLDY    38  35  89 CALM      30.34R
AKRON-CANTON   PTCLDY    47  30  51 E8        30.31F
WOOSTER        CLEAR     43  35  73 CALM      30.32S
MANSFIELD      PTCLDY    49  36  61 SE5       30.30S
YOUNGSTOWN     MOCLDY    40  31  70 CALM      30.33R
$$

OHZ042-051>053-060>062-070>072-077>081-230500-
  SOUTHWEST OHIO

CITY           SKY/WX    TMP DP  RH WIND       PRES   REMARKS
CINC-COVINGTON CLEAR     58  47  66 CALM      30.29R
CINC-LUNKEN    CLEAR     55  49  80 CALM      30.29R
HAMILTON       CLEAR     51  48  89 CALM      30.30R
DAYTON         PTCLDY    58  39  49 NE3       30.30R
WRIGHT-PAT AFB PTCLDY    53  45  73 CALM      30.29R
DAYTON GENERAL PTCLDY    57  45  64 E3        30.28R
WILMINGTON     CLEAR     51  44  77 SE3       30.29R
$$

OHZ036-037-039>041-045>050-054>059-063>069-073>076-082>088-230500-
  CENTRAL AND SOUTHEAST OHIO

CITY           SKY/WX    TMP DP  RH WIND       PRES   REMARKS
COLUMBUS       PTCLDY    56  35  45 E5        30.29R
OSU AIRPORT    CLEAR     54  35  48 E6        30.30R
BOLTON FIELD   NOT AVBL
RICKENBACK AFB CLEAR     53  40  59 NE7       30.29R
NEWARK         CLEAR     49  37  63 CALM      30.30R
MARION         PTCLDY    53  32  44 SE3       30.30R
LANCASTER      CLEAR     55  40  56 CALM      30.30R
ZANESVILLE     CLEAR     53  33  46 NE3       30.31R
NEW PHILLY     CLEAR     49  38  65 CALM      30.32S
$$


USA.gov is the U.S. government's official web portal to all federal, state and local government web resources and services.